Weather History for Greenville, AL

Change the Weather History Date:

Friday, May 3, 2013

  Actual Average Record
Temperature  
Mean Temperature 60 °F -  
Max Temperature 71 °F 81 °F 93 °F (1990)
Min Temperature 50 °F 57 °F 44 °F (1940)
Degree Days  
Heating Degree Days 4    
Growing Degree Days 10 (Base 50)    
Moisture  
Dew Point 58 °F    
Average Humidity 83    
Maximum Humidity 94    
Minimum Humidity 61    
Precipitation  
Precipitation 0.54 in - - ()
Sea Level Pressure  
Sea Level Pressure 29.89 in    
Wind  
Wind Speed 11 mph (East)    
Max Wind Speed 18 mph    
Max Gust Speed 31 mph    
Visibility 8 miles    
Events Rain    
Averages and records for this station are not official NWS values.
T = Trace of Precipitation, MM = Missing Value Source: NWS Daily Summary

Daily Weather History Graph

Daily Weather History Graph

Search for Another Location

Airport:

Trip Planner

Search our weather history database for the weather conditions in past years. The results will help you decide how hot, cold, wet, or windy it might be!

Date:

Astronomy

May. 03, 2013 Rise Set
Actual Time 5:58 AM CDT 7:28 PM CDT
Civil Twilight 5:32 AM CDT 7:54 PM CDT
Nautical Twilight 5:01 AM CDT 8:25 PM CDT
Astronomical Twilight 4:28 AM CDT 8:58 PM CDT
Moon 1:59 AM CDT (5/3) 1:43 PM CDT (5/3)
Length of Visible Light 14h 21m
Length of Day
13h 29m
Last Quarter, 37% of the Moon is Illuminated
May 3
Last Quarter
May 9
New
May 17
First Quarter
May 24
Full
May 31
Last Quarter

Hourly Weather History & Observations

Time (CDT) Temp. Dew Point Humidity Pressure Visibility Wind Dir Wind Speed Gust Speed Precip Events Conditions
12:56 AM 66.9 °F 60.1 °F 79% 29.96 in 10.0 mi ENE 8.1 mph - N/A   Overcast
1:10 AM 66.2 °F 60.8 °F 83% 29.97 in 10.0 mi ENE 10.4 mph - N/A   Overcast
1:56 AM 66.0 °F 59.0 °F 78% 29.94 in 10.0 mi ENE 12.7 mph 17.3 mph N/A   Overcast
2:56 AM 64.0 °F 60.1 °F 87% 29.94 in 10.0 mi ENE 8.1 mph - N/A   Overcast
3:14 AM 64.4 °F 60.8 °F 88% 29.94 in 10.0 mi ENE 10.4 mph - N/A   Mostly Cloudy
3:56 AM 64.0 °F 59.0 °F 84% 29.93 in 10.0 mi ENE 8.1 mph - N/A   Mostly Cloudy
4:56 AM 64.0 °F 59.0 °F 84% 29.92 in 10.0 mi ENE 8.1 mph - N/A   Overcast
5:09 AM 64.4 °F 59.0 °F 83% 29.93 in 10.0 mi ENE 9.2 mph - N/A   Mostly Cloudy
5:56 AM 63.0 °F 59.0 °F 87% 29.93 in 10.0 mi ENE 5.8 mph - N/A   Scattered Clouds
6:56 AM 64.0 °F 59.0 °F 84% 29.93 in 10.0 mi East 9.2 mph - N/A   Overcast
7:56 AM 64.9 °F 59.0 °F 81% 29.93 in 10.0 mi East 6.9 mph 17.3 mph 0.00 in   Overcast
8:56 AM 66.0 °F 59.0 °F 78% 29.92 in 10.0 mi East 10.4 mph 19.6 mph N/A   Overcast
9:38 AM 68.0 °F 57.2 °F 68% 29.94 in 10.0 mi ENE 15.0 mph 23.0 mph N/A   Overcast
9:56 AM 68.0 °F 57.9 °F 70% 29.93 in 10.0 mi East 11.5 mph 18.4 mph N/A   Overcast
10:56 AM 69.1 °F 57.9 °F 68% 29.94 in 10.0 mi East 12.7 mph - N/A   Overcast
11:38 AM 71.6 °F 59.0 °F 64% 29.93 in 10.0 mi East 9.2 mph - 0.00 in   Overcast
11:56 AM 70.0 °F 57.9 °F 65% 29.92 in 10.0 mi East 11.5 mph - 0.00 in   Overcast
12:56 PM 71.1 °F 57.9 °F 63% 29.90 in 10.0 mi ENE 10.4 mph - N/A   Overcast
1:56 PM 71.1 °F 57.0 °F 61% 29.88 in 10.0 mi East 11.5 mph - N/A   Overcast
2:52 PM 71.6 °F 59.0 °F 64% 29.87 in 10.0 mi East 17.3 mph 24.2 mph 0.00 in   Overcast
2:56 PM 71.1 °F 57.9 °F 63% 29.86 in 10.0 mi East 12.7 mph 23.0 mph 0.00 in   Overcast
3:07 PM 71.6 °F 59.0 °F 64% 29.86 in 10.0 mi ESE 12.7 mph - N/A   Overcast
3:45 PM 69.8 °F 57.2 °F 64% 29.85 in 10.0 mi East 13.8 mph 23.0 mph N/A   Overcast
3:54 PM 69.8 °F 59.0 °F 68% 29.85 in 10.0 mi East 10.4 mph 20.7 mph N/A   Overcast
3:56 PM 69.1 °F 59.0 °F 70% 29.84 in 10.0 mi East 8.1 mph 17.3 mph N/A   Overcast
4:52 PM 69.8 °F 60.8 °F 73% 29.85 in 9.0 mi East 18.4 mph 23.0 mph N/A   Overcast
4:56 PM 66.9 °F 60.1 °F 79% 29.84 in 9.0 mi East 18.4 mph 24.2 mph 0.00 in Rain Light Rain
5:12 PM 66.2 °F 60.8 °F 83% 29.85 in 10.0 mi ESE 15.0 mph 20.7 mph 0.00 in   Overcast
5:48 PM 66.2 °F 60.8 °F 83% 29.85 in 10.0 mi ESE 9.2 mph 17.3 mph 0.00 in   Overcast
5:56 PM 66.9 °F 61.0 °F 81% 29.84 in 10.0 mi ESE 9.2 mph - 0.00 in   Overcast
6:17 PM 64.4 °F 62.6 °F 94% 29.85 in 2.5 mi East 16.1 mph 21.9 mph 0.01 in Rain Rain
6:21 PM 64.4 °F 62.6 °F 94% 29.85 in 2.0 mi East 16.1 mph 21.9 mph 0.02 in Rain Light Rain
6:31 PM 64.4 °F 62.6 °F 94% 29.86 in 4.0 mi ESE 9.2 mph - 0.02 in Rain Light Rain
6:49 PM 64.4 °F 62.6 °F 94% 29.86 in 5.0 mi ESE 10.4 mph - 0.02 in Rain Light Rain
6:56 PM 64.0 °F 62.1 °F 93% 29.85 in 3.0 mi ESE 9.2 mph - 0.02 in Rain Light Rain
7:20 PM 62.6 °F 60.8 °F 94% 29.86 in 3.0 mi ESE 9.2 mph - 0.02 in Rain Light Rain
7:38 PM 62.6 °F 60.8 °F 94% 29.86 in 8.0 mi ESE 11.5 mph 17.3 mph 0.02 in Rain Light Rain
7:56 PM 63.0 °F 61.0 °F 93% 29.85 in 9.0 mi East 11.5 mph 20.7 mph 0.02 in Rain Light Rain
8:56 PM 62.1 °F 60.1 °F 93% 29.86 in 10.0 mi ESE 10.4 mph - 0.01 in   Overcast
9:44 PM 62.6 °F 60.8 °F 94% 29.86 in 2.5 mi ESE 9.2 mph 17.3 mph 0.07 in Rain Heavy Rain
9:46 PM 62.6 °F 60.8 °F 94% 29.86 in 3.0 mi ESE 8.1 mph 17.3 mph 0.08 in Rain Heavy Rain
9:56 PM 62.1 °F 60.1 °F 93% 29.86 in 5.0 mi ESE 8.1 mph 17.3 mph 0.08 in Rain Light Rain
10:11 PM 62.6 °F 60.8 °F 94% 29.86 in 6.0 mi ESE 6.9 mph 17.3 mph 0.01 in Rain Light Rain
10:53 PM 62.6 °F 60.8 °F 94% 29.86 in 10.0 mi SE 9.2 mph - 0.02 in   Overcast
10:56 PM 63.0 °F 60.1 °F 90% 29.85 in 10.0 mi SSE 6.9 mph - 0.02 in   Overcast
11:17 PM 55.4 °F 53.6 °F 94% 29.89 in 2.5 mi West 16.1 mph 31.1 mph 0.09 in Rain Heavy Rain
11:24 PM 51.8 °F 50.0 °F 94% 29.91 in 1.2 mi West 13.8 mph 25.3 mph 0.23 in Rain Heavy Rain
11:31 PM 51.8 °F 48.2 °F 88% 29.91 in 1.5 mi West 16.1 mph 25.3 mph 0.30 in Rain Heavy Rain
11:38 PM 50.0 °F 48.2 °F 94% 29.90 in 2.5 mi West 13.8 mph 23.0 mph 0.32 in Rain Heavy Rain
11:44 PM 50.0 °F 48.2 °F 94% 29.91 in 4.0 mi WNW 13.8 mph 23.0 mph 0.34 in Rain Rain
11:52 PM 50.0 °F 48.2 °F 94% 29.90 in 3.0 mi WNW 17.3 mph 23.0 mph 0.37 in Rain Heavy Rain
11:56 PM 50.0 °F 46.9 °F 89% 29.90 in 3.0 mi WNW 15.0 mph 25.3 mph 0.39 in Rain Heavy Rain